DW7126 Weather Reports


time (UTC)temp
C
wind
direction
speed
KPH
gust
KPH
rain 1hr
cm
rain 24hr
cm
rain mn
cm
humidity
%
barometer
mb
20190616063131 13 42 1.6 8.0 0.00 0.00 0.00 91 1018.8
20190616063046 13 56 1.6 6.4 0.00 0.00 0.00 91 1019.1
20190616063021 13 56 1.6 6.4 0.00 0.00 0.00 91 1019.0
20190616062631 13 28 3.2 4.8 0.00 0.00 0.00 92 1018.6
20190616062103 13 49 4.8 8.0 0.00 0.00 0.00 92 1018.6
20190616062040 13 49 3.2 8.0 0.00 0.00 0.00 92 1018.9
20190616061603 13 22 4.8 9.7 0.00 0.00 0.00 92 1018.7
20190616061534 13 15 6.4 9.7 0.00 0.00 0.00 92 1018.5
20190616061036 13 30 4.8 9.7 0.00 0.00 0.00 92 1018.8
20190616061030 13 30 4.8 9.7 0.00 0.00 0.00 92 1018.5
20190616060529 13 52 3.2 6.4 0.00 0.00 0.00 92 1018.6
20190616060039 13 46 4.8 6.4 0.00 0.00 0.00 92 1018.9
20190616060022 13 46 3.2 8.0 0.00 0.00 0.00 92 1018.6
20190616055503 13 28 3.2 6.4 0.00 0.00 0.00 92 1018.6
20190616055053 13 40 1.6 8.0 0.00 0.00 0.00 92 1018.9
20190616055002 13 40 3.2 8.0 0.00 0.00 0.00 92 1018.6
20190616054431 12 29 3.2 6.4 0.00 0.00 0.00 92 1018.6
20190616054040 12 42 3.2 6.4 0.00 0.00 0.00 92 1018.9
20190616053930 12 30 1.6 6.4 0.00 0.00 0.00 92 1018.6
20190616053403 11 30 1.6 6.4 0.00 0.00 0.00 92 1018.6
20190616053122 11 30 0.0 4.8 0.00 0.00 0.00 92 1018.8
20190616053030 11 30 1.6 4.8 0.00 0.00 0.00 92 1018.8
20190616052903 12 30 3.2 3.2 0.00 0.00 0.00 92 1018.5
20190616052335 12 30 3.2 6.4 0.00 0.00 0.00 92 1018.4
20190616052041 12 30 3.2 6.4 0.00 0.00 0.00 92 1018.7
20190616051830 12 28 4.8 8.0 0.00 0.00 0.00 92 1018.4
20190616051539 12 28 1.6 8.0 0.00 0.00 0.00 92 1018.6
20190616051330 12 29 4.8 6.4 0.00 0.00 0.00 92 1018.3
20190616051040 12 32 6.4 9.7 0.00 0.00 0.00 92 1018.6
20190616050802 12 53 6.4 9.7 0.00 0.00 0.00 92 1018.3
20190616050301 12 34 6.4 9.7 0.00 0.00 0.00 92 1018.3
20190616050043 12 23 8.0 9.7 0.00 0.00 0.00 92 1018.6
20190616045730 12 23 4.8 8.0 0.00 0.00 0.00 92 1018.4
20190616045229 12 22 4.8 8.0 0.00 0.00 0.00 92 1018.5
20190616045033 12 22 4.8 8.0 0.00 0.00 0.00 92 1018.8
20190616044731 12 20 4.8 8.0 0.00 0.00 0.00 92 1018.5
20190616044219 12 18 4.8 9.7 0.00 0.00 0.00 92 1018.5
20190616044028 12 31 4.8 9.7 0.00 0.00 0.00 92 1018.8
20190616043704 12 74 4.8 9.7 0.00 0.00 0.00 92 1018.4
20190616043202 12 36 3.2 6.4 0.00 0.00 0.00 92 1018.4
20190616043027 12 14 3.2 6.4 0.00 0.00 0.00 92 1018.7
20190616042703 12 57 3.2 8.0 0.00 0.00 0.00 92 1018.5
20190616042131 12 53 3.2 8.0 0.00 0.00 0.00 91 1018.5
20190616042040 12 53 3.2 8.0 0.00 0.00 0.00 91 1018.8
20190616041631 12 13 4.8 9.7 0.00 0.00 0.00 92 1018.5
20190616041103 12 53 4.8 9.7 0.00 0.00 0.00 92 1018.5
20190616041032 12 49 4.8 8.0 0.00 0.00 0.00 92 1018.8
20190616040602 12 20 4.8 9.7 0.00 0.00 0.00 92 1018.4
20190616040104 12 42 4.8 9.7 0.00 0.00 0.00 92 1018.4
20190616040049 12 42 4.8 9.7 0.00 0.00 0.00 92 1018.7
20190616040034 12 44 4.8 9.7 0.00 0.00 0.00 92 1018.6
20190616035538 12 14 4.8 8.0 0.00 0.00 0.00 92 1018.4
20190616035032 12 32 6.4 8.0 0.00 0.00 0.00 92 1018.4
20190616035026 12 32 4.8 8.0 0.00 0.00 0.00 92 1018.7
20190616034531 12 58 4.8 8.0 0.00 0.00 0.00 91 1018.4
20190616034525 12 58 4.8 8.0 0.00 0.00 0.00 91 1018.6
20190616034030 12 54 4.8 8.0 0.00 0.00 0.00 91 1018.4
20190616034028 12 54 4.8 8.0 0.00 0.00 0.00 91 1018.7
20190616033529 12 40 4.8 8.0 0.00 0.00 0.00 91 1018.5
20190616033031 12 32 4.8 8.0 0.00 0.00 0.00 91 1018.5
20190616033028 12 32 4.8 8.0 0.00 0.00 0.00 91 1018.8
20190616032522 12 43 3.2 8.0 0.00 0.00 0.00 91 1018.6
20190616032035 12 43 3.2 8.0 0.00 0.00 0.00 91 1019.0
20190616032023 12 43 3.2 8.0 0.00 0.00 0.00 91 1018.7
20190616031501 12 57 3.2 8.0 0.00 0.00 0.00 91 1018.6
20190616031038 12 15 3.2 8.0 0.00 0.00 0.00 91 1019.1
20190616030942 12 42 3.2 9.7 0.00 0.00 0.00 91 1018.8
20190616030429 12 42 4.8 9.7 0.00 0.00 0.00 91 1018.8
20190616030209 12 23 3.2 9.7 0.00 0.00 0.00 91 1019.1
20190616030037 12 23 3.2 11.3 0.00 0.00 0.00 91 1019.1
20190616025908 12 23 6.4 11.3 0.00 0.00 0.00 91 1018.9
20190616025402 12 42 4.8 11.3 0.00 0.00 0.00 91 1018.9
20190616025031 12 28 4.8 8.0 0.00 0.00 0.00 91 1019.2
20190616024902 12 31 4.8 8.0 0.00 0.00 0.00 91 1019.0
20190616024610 12 18 3.2 6.4 0.00 0.00 0.00 91 1019.2
20190616024400 12 23 3.2 6.4 0.00 0.00 0.00 91 1019.1
20190616024050 13 23 3.2 6.4 0.00 0.00 0.00 91 1019.4
20190616023832 13 18 3.2 6.4 0.00 0.00 0.00 91 1019.1
20190616023332 13 44 3.2 4.8 0.00 0.00 0.00 91 1019.1
20190616023036 13 34 3.2 6.4 0.00 0.00 0.00 91 1019.5
20190616022805 13 34 4.8 4.8 0.00 0.00 0.00 91 1019.2
20190616022256 13 20 4.8 0.0 0.00 0.00 0.00 91 1019.2
20190616022033 13 28 6.4 0.0 0.00 0.00 0.00 90 1019.4
20190616021531 13 28 6.4 0.0 0.00 0.00 0.00 90 1019.4
20190616021034 13 28 6.4 0.0 0.00 0.00 0.00 90 1019.4
20190616020503 13 28 6.4 0.0 0.00 0.00 0.00 90 1019.4
20190616020003 13 28 6.4 0.0 0.00 0.00 0.00 90 1019.4
20190616015431 13 28 6.4 0.0 0.00 0.00 0.00 90 1019.4
20190616014931 13 28 6.4 0.0 0.00 0.00 0.00 90 1019.4
20190616014405 13 28 6.4 0.0 0.00 0.00 0.00 90 1019.4
20190616013832 13 28 6.4 0.0 0.00 0.00 0.00 90 1019.4
20190616013332 13 28 6.4 0.0 0.00 0.00 0.00 90 1019.4
20190616012804 13 28 6.4 8.0 0.00 0.00 0.00 90 1019.4
20190616012304 13 28 6.4 8.0 0.00 0.00 0.00 90 1019.4
20190616012046 13 28 6.4 11.3 0.00 0.00 0.00 90 1019.7
20190616011732 13 17 6.4 11.3 0.00 0.00 0.00 90 1019.5
20190616011641 13 50 4.8 11.3 0.00 0.00 0.00 90 1019.7
20190616011230 13 30 4.8 9.7 0.00 0.00 0.00 90 1019.4
20190616010730 13 47 4.8 8.0 0.00 0.00 0.00 90 1019.4
20190616010205 13 19 6.4 11.3 0.00 0.00 0.00 89 1019.5
20190616010038 13 15 6.4 11.3 0.00 0.00 0.00 89 1019.8
20190616005702 13 29 4.8 11.3 0.00 0.00 0.00 89 1019.6
20190616005203 13 40 4.8 12.9 0.00 0.00 0.00 89 1019.6
20190616005024 13 44 4.8 11.3 0.00 0.00 0.00 89 1019.9
20190616004703 13 26 6.4 12.9 0.00 0.00 0.00 89 1019.6
20190616004629 13 40 4.8 11.3 0.00 0.00 0.00 89 1019.8
20190616004201 13 13 8.0 12.9 0.00 0.00 0.00 89 1019.6
20190616004030 13 30 6.4 12.9 0.00 0.00 0.00 89 1019.9
20190616003701 13 29 8.0 12.9 0.00 0.00 0.00 89 1019.7
20190616003159 13 27 6.4 12.9 0.00 0.00 0.00 89 1019.9
20190616003129 13 26 6.4 12.9 0.00 0.00 0.00 89 1019.8
20190616003042 13 29 6.4 12.9 0.00 0.00 0.00 89 1020.1
20190616002629 13 5 4.8 11.3 0.00 0.00 0.00 88 1019.8
20190616002103 13 32 6.4 9.7 0.00 0.00 0.00 89 1019.8
20190616002039 13 32 4.8 11.3 0.00 0.00 0.00 89 1020.1
20190616001708 13 27 6.4 11.3 0.00 0.00 0.00 89 1020.0
20190616001538 13 27 6.4 11.3 0.00 0.00 0.00 89 1019.8
20190616001037 13 31 8.0 9.7 0.00 0.00 0.00 89 1019.9
20190616001025 13 31 8.0 11.3 0.00 0.00 0.00 88 1020.2
20190616000533 13 21 8.0 12.9 0.00 0.00 0.00 88 1019.9
20190616000048 13 15 8.0 12.9 0.00 0.00 0.00 88 1020.2
20190616000037 13 19 8.0 12.9 0.00 0.00 0.00 88 1020.1
20190616000032 13 0 8.0 11.3 0.00 0.00 0.00 88 1019.9
20190615235504 13 27 8.0 11.3 0.00 0.00 0.00 88 1019.9
20190615235033 13 37 9.7 12.9 0.00 0.00 0.00 88 1020.3
20190615234943 13 36 8.0 0.0 0.00 0.00 0.00 88 1019.9
20190615234729 13 13 8.0 0.0 0.00 0.00 0.00 86 1020.7
20190615234231 13 13 8.0 0.0 0.00 0.00 0.00 86 1020.7
20190615233704 13 13 8.0 0.0 0.00 0.00 0.00 86 1020.7
20190615233203 13 13 8.0 0.0 0.00 0.00 0.00 86 1020.7
20190615232631 13 13 8.0 0.0 0.00 0.00 0.00 86 1020.7
20190615232130 13 13 8.0 0.0 0.00 0.00 0.00 86 1020.7
20190615231603 13 13 8.0 0.0 0.00 0.00 0.00 86 1020.7
20190615231101 13 13 8.0 0.0 0.00 0.00 0.00 86 1020.7
20190615230601 13 13 8.0 0.0 0.00 0.00 0.00 86 1020.7
20190615230030 13 13 8.0 0.0 0.00 0.00 0.00 86 1020.7
20190615225530 13 13 8.0 12.9 0.00 0.00 0.00 86 1020.7
20190615225002 13 13 8.0 12.9 0.00 0.00 0.00 86 1020.7
20190615224520 13 19 6.4 11.3 0.00 0.00 0.00 86 1021.0
20190615224501 13 18 8.0 12.9 0.00 0.00 0.00 86 1020.7
20190615224001 14 28 9.7 14.5 0.00 0.00 0.00 86 1020.7
20190615223501 14 11 9.7 12.9 0.00 0.00 0.00 86 1020.7
20190615223002 14 30 8.0 9.7 0.00 0.00 0.00 86 1020.7
20190615222501 14 26 8.0 14.5 0.00 0.00 0.00 85 1020.7
20190615222038 14 22 8.0 14.5 0.00 0.00 0.00 85 1021.0
20190615222001 14 21 8.0 14.5 0.00 0.00 0.00 85 1020.7
20190615221737 13 14 9.7 14.5 0.00 0.00 0.00 85 1021.0
20190615221501 14 14 8.0 11.3 0.00 0.00 0.00 85 1020.7
20190615221026 14 24 8.0 12.9 0.00 0.00 0.00 85 1021.1
20190615221003 14 0 8.0 12.9 0.00 0.00 0.00 85 1020.8
20190615220501 14 31 8.0 11.3 0.00 0.00 0.00 85 1020.8
20190615220156 13 36 6.4 11.3 0.00 0.00 0.00 85 1021.0
20190615220031 14 29 8.0 11.3 0.00 0.00 0.00 85 1021.1
20190615220002 14 29 8.0 11.3 0.00 0.00 0.00 84 1020.8
20190615215430 14 35 4.8 9.7 0.00 0.00 0.00 84 1020.8
20190615215042 14 13 6.4 11.3 0.00 0.00 0.00 84 1021.1
20190615214929 14 32 6.4 12.9 0.00 0.00 0.00 84 1020.8
20190615214512 13 33 4.8 12.9 0.00 0.00 0.00 83 1021.1
20190615214402 14 37 6.4 12.9 0.00 0.00 0.00 83 1020.8
20190615214040 14 39 8.0 11.3 0.00 0.00 0.00 83 1021.1
20190615213901 14 30 6.4 11.3 0.00 0.00 0.00 83 1020.8
20190615213403 14 28 6.4 11.3 0.00 0.00 0.00 83 1020.8
20190615213043 14 29 6.4 11.3 0.00 0.00 0.00 83 1021.2
20190615212831 14 20 8.0 12.9 0.00 0.00 0.00 83 1020.9
20190615212331 15 29 8.0 12.9 0.00 0.00 0.00 82 1020.9
20190615212025 15 35 8.0 12.9 0.00 0.00 0.00 82 1021.2
20190615211803 15 29 8.0 12.9 0.00 0.00 0.00 82 1020.9
20190615211302 15 13 8.0 12.9 0.00 0.00 0.00 82 1020.9
20190615211035 15 25 8.0 12.9 0.00 0.00 0.00 82 1021.2
20190615210731 15 32 8.0 11.3 0.00 0.00 0.00 81 1020.8
20190615210234 15 15 8.0 12.9 0.00 0.00 0.00 81 1020.8
20190615210054 15 16 9.7 12.9 0.00 0.00 0.00 81 1021.1
20190615210015 15 13 9.7 12.9 0.00 0.00 0.00 81 1021.1
20190615205729 15 24 6.4 11.3 0.00 0.00 0.00 81 1020.8
20190615205204 15 27 8.0 12.9 0.00 0.00 0.00 81 1020.8
20190615205036 15 29 8.0 12.9 0.00 0.00 0.00 80 1021.1
20190615204702 15 24 8.0 12.9 0.00 0.00 0.00 80 1020.8
20190615204130 15 40 11.3 17.7 0.00 0.00 0.00 80 1020.7
20190615204037 15 40 8.0 17.7 0.00 0.00 0.00 80 1021.0
20190615203629 15 24 11.3 16.1 0.00 0.00 0.00 80 1020.6
20190615203102 15 16 11.3 20.9 0.00 0.00 0.00 79 1020.5
20190615203031 15 16 9.7 20.9 0.00 0.00 0.00 79 1020.8
20190615202601 15 349 11.3 20.9 0.00 0.00 0.00 79 1020.5
20190615202103 15 25 12.9 20.9 0.00 0.00 0.00 79 1020.5
20190615202032 15 19 11.3 20.9 0.00 0.00 0.00 79 1020.8
20190615201602 15 11 12.9 20.9 0.00 0.00 0.00 78 1020.4
20190615201041 15 26 12.9 20.9 0.00 0.00 0.00 78 1020.7
20190615201034 15 24 14.5 20.9 0.00 0.00 0.00 78 1020.3
20190615200530 16 45 16.1 19.3 0.00 0.00 0.00 78 1020.4
20190615200041 16 20 17.7 24.1 0.00 0.00 0.00 77 1020.6
20190615200021 15 17 16.1 24.1 0.00 0.00 0.00 77 1020.6
20190615200005 16 17 16.1 25.7 0.00 0.00 0.00 77 1020.3
20190615195502 16 28 17.7 22.5 0.00 0.00 0.00 76 1020.4
20190615195025 16 24 17.7 29.0 0.00 0.00 0.00 75 1020.7
20190615195001 16 19 17.7 29.0 0.00 0.00 0.00 75 1020.3
20190615194532 16 9 19.3 29.0 0.00 0.00 0.00 74 1020.5
20190615194502 16 21 14.5 29.0 0.00 0.00 0.00 74 1020.4
20190615194046 16 360 12.9 29.0 0.00 0.00 0.00 73 1020.6
20190615194001 16 355 17.7 29.0 0.00 0.00 0.00 73 1020.4
20190615193444 16 19 19.3 30.6 0.00 0.00 0.00 73 1020.4
20190615193046 16 26 20.9 30.6 0.00 0.00 0.00 72 1020.6
20190615193030 16 32 19.3 30.6 0.00 0.00 0.00 72 1020.6
20190615192930 16 28 19.3 30.6 0.00 0.00 0.00 72 1020.4
20190615192422 17 11 20.9 30.6 0.00 0.00 0.00 72 1020.4
20190615192029 17 28 20.9 30.6 0.00 0.00 0.00 71 1020.7
20190615191902 17 17 19.3 30.6 0.00 0.00 0.00 71 1020.4
20190615191401 17 30 19.3 29.0 0.00 0.00 0.00 72 1020.5
20190615191037 17 15 17.7 29.0 0.00 0.00 0.00 71 1020.8
20190615190831 17 25 19.3 29.0 0.00 0.00 0.00 71 1020.5
20190615190311 17 28 17.7 27.4 0.00 0.00 0.00 72 1020.5
20190615190059 17 28 19.3 27.4 0.00 0.00 0.00 71 1020.8
20190615190045 17 355 17.7 27.4 0.00 0.00 0.00 71 1020.7
20190615185805 17 355 16.1 24.1 0.00 0.00 0.00 71 1020.5
20190615185305 17 11 14.5 24.1 0.00 0.00 0.00 71 1020.6
20190615185036 17 17 16.1 20.9 0.00 0.00 0.00 70 1020.8
20190615184801 17 347 14.5 24.1 0.00 0.00 0.00 70 1020.6
20190615184615 17 347 11.3 24.1 0.00 0.00 0.00 70 1020.8
20190615184301 17 341 16.1 25.7 0.00 0.00 0.00 69 1020.6
20190615184030 17 5 17.7 25.7 0.00 0.00 0.00 68 1020.9
20190615183803 18 5 14.5 25.7 0.00 0.00 0.00 68 1020.7
20190615183231 18 338 14.5 29.0 0.00 0.00 0.00 67 1020.6
20190615183051 18 5 16.1 29.0 0.00 0.00 0.00 67 1020.9
20190615183011 17 27 14.5 29.0 0.00 0.00 0.00 67 1020.8
20190615182731 18 5 16.1 29.0 0.00 0.00 0.00 68 1020.6
20190615182205 18 355 16.1 27.4 0.00 0.00 0.00 67 1020.6
20190615182030 18 9 17.7 27.4 0.00 0.00 0.00 67 1020.9
20190615181736 18 9 14.5 25.7 0.00 0.00 0.00 66 1020.7
20190615181202 18 5 16.1 25.7 0.00 0.00 0.00 66 1020.7
20190615181033 18 5 16.1 25.7 0.00 0.00 0.00 66 1021.0
20190615180700 18 350 16.1 27.4 0.00 0.00 0.00 64 1020.7
20190615180203 18 12 16.1 27.4 0.00 0.00 0.00 65 1020.6
20190615180103 18 5 12.9 27.4 0.00 0.00 0.00 64 1020.9
20190615180055 18 14 12.9 27.4 0.00 0.00 0.00 65 1020.9
20190615175701 18 17 16.1 25.7 0.00 0.00 0.00 64 1020.6
20190615175137 18 18 16.1 24.1 0.00 0.00 0.00 63 1020.5
20190615175041 18 24 17.7 24.1 0.00 0.00 0.00 63 1020.8
20190615174629 18 26 16.1 30.6 0.00 0.00 0.00 65 1020.6
20190615174621 18 24 14.5 30.6 0.00 0.00 0.00 65 1020.8
20190615174130 18 348 16.1 30.6 0.00 0.00 0.00 66 1020.7
20190615174042 18 5 16.1 30.6 0.00 0.00 0.00 66 1021.0
20190615173601 18 355 16.1 20.9 0.00 0.00 0.00 66 1020.6
20190615173205 18 331 16.1 27.4 0.00 0.00 0.00 66 1020.9
20190615173101 18 340 16.1 27.4 0.00 0.00 0.00 66 1020.7
20190615173034 18 345 16.1 27.4 0.00 0.00 0.00 65 1021.0
20190615172604 19 0 14.5 24.1 0.00 0.00 0.00 64 1020.6
20190615172100 19 5 14.5 22.5 0.00 0.00 0.00 65 1020.7
20190615172038 19 5 16.1 24.1 0.00 0.00 0.00 65 1021.0
20190615171620 19 9 11.3 22.5 0.00 0.00 0.00 65 1020.9
20190615171539 19 355 14.5 16.1 0.00 0.00 0.00 65 1020.6
20190615171035 19 360 12.9 24.1 0.00 0.00 0.00 66 1020.9
20190615171030 19 0 14.5 29.0 0.00 0.00 0.00 66 1020.6
20190615170530 18 333 17.7 24.1 0.00 0.00 0.00 67 1020.6
20190615170030 18 336 16.1 30.6 0.00 0.00 0.00 67 1021.0
20190615170002 18 21 17.7 30.6 0.00 0.00 0.00 68 1020.6
20190615165501 18 317 17.7 30.6 0.00 0.00 0.00 67 1020.6
20190615165040 18 331 14.5 30.6 0.00 0.00 0.00 67 1021.0
20190615164930 18 320 19.3 30.6 0.00 0.00 0.00 67 1020.7
20190615164429 19 319 17.7 27.4 0.00 0.00 0.00 66 1020.7
20190615164045 19 327 19.3 27.4 0.00 0.00 0.00 66 1021.0
20190615163931 19 336 17.7 25.7 0.00 0.00 0.00 65 1020.7
20190615163430 18 306 16.1 25.7 0.00 0.00 0.00 67 1020.8
20190615163031 19 332 17.7 25.7 0.00 0.00 0.00 66 1021.0
20190615162930 19 337 17.7 29.0 0.00 0.00 0.00 66 1020.7
20190615162428 19 317 16.1 29.0 0.00 0.00 0.00 68 1020.7
20190615162037 19 338 16.1 29.0 0.00 0.00 0.00 69 1021.0
20190615161927 19 18 17.7 29.0 0.00 0.00 0.00 69 1020.7
20190615161403 18 355 19.3 27.4 0.00 0.00 0.00 69 1020.8
20190615161044 19 332 17.7 30.6 0.00 0.00 0.00 69 1021.1
20190615160838 18 327 20.9 30.6 0.00 0.00 0.00 70 1020.8
20190615160331 18 333 20.9 30.6 0.00 0.00 0.00 71 1020.8
20190615160035 18 303 22.5 30.6 0.00 0.00 0.00 71 1021.1
20190615155821 18 326 19.3 30.6 0.00 0.00 0.00 70 1020.7
20190615155303 18 342 17.7 30.6 0.00 0.00 0.00 70 1020.8
20190615155031 18 333 16.1 27.4 0.00 0.00 0.00 69 1021.2
20190615154803 18 298 19.3 32.2 0.00 0.00 0.00 68 1021.0
20190615154302 18 286 20.9 32.2 0.00 0.00 0.00 67 1020.9
20190615154042 18 321 20.9 32.2 0.00 0.00 0.00 67 1021.3
20190615153801 19 305 19.3 29.0 0.00 0.00 0.00 66 1021.1
20190615153302 18 294 19.3 29.0 0.00 0.00 0.00 65 1021.1
20190615153152 18 311 17.7 29.0 0.00 0.00 0.00 66 1021.3
20190615153046 18 290 19.3 29.0 0.00 0.00 0.00 66 1021.4
20190615152800 18 323 17.7 29.0 0.00 0.00 0.00 64 1021.2
20190615152239 19 327 17.7 24.1 0.00 0.00 0.00 68 1021.3
20190615152039 19 288 19.3 25.7 0.00 0.00 0.00 66 1021.6
20190615151731 19 320 17.7 27.4 0.00 0.00 0.00 66 1021.3
20190615151652 18 340 14.5 27.4 0.00 0.00 0.00 65 1021.5
20190615151230 18 275 16.1 22.5 0.00 0.00 0.00 67 1021.3
20190615151048 18 329 17.7 27.4 0.00 0.00 0.00 67 1021.6
20190615150702 19 307 14.5 27.4 0.00 0.00 0.00 65 1021.4
20190615150203 19 303 14.5 25.7 0.00 0.00 0.00 62 1021.4
20190615150040 19 317 16.1 24.1 0.00 0.00 0.00 66 1021.7
20190615145701 19 288 16.1 25.7 0.00 0.00 0.00 66 1021.4
20190615145130 18 334 17.7 25.7 0.00 0.00 0.00 68 1021.3
20190615145038 18 293 16.1 25.7 0.00 0.00 0.00 68 1021.6
20190615144603 18 335 17.7 25.7 0.00 0.00 0.00 69 1021.4
20190615144101 19 325 16.1 27.4 0.00 0.00 0.00 69 1021.4
20190615144039 19 325 17.7 25.7 0.00 0.00 0.00 69 1021.7
20190615143601 19 323 16.1 27.4 0.00 0.00 0.00 70 1021.4
20190615143033 18 307 17.7 29.0 0.00 0.00 0.00 69 1021.7
20190615143030 18 307 17.7 29.0 0.00 0.00 0.00 69 1021.4
20190615142529 19 310 17.7 29.0 0.00 0.00 0.00 70 1021.4
20190615142049 18 323 16.1 24.1 0.00 0.00 0.00 69 1021.7
20190615142006 19 319 16.1 24.1 0.00 0.00 0.00 71 1021.4
20190615141431 19 345 16.1 25.7 0.00 0.00 0.00 71 1021.4
20190615141030 18 342 17.7 25.7 0.00 0.00 0.00 73 1021.7
20190615140930 18 284 16.1 25.7 0.00 0.00 0.00 69 1021.4
20190615140403 18 301 14.5 25.7 0.00 0.00 0.00 71 1021.5
20190615140108 18 336 14.5 25.7 0.00 0.00 0.00 71 1021.6
20190615140028 18 307 12.9 25.7 0.00 0.00 0.00 72 1021.7
20190615135908 19 276 14.5 25.7 0.00 0.00 0.00 72 1021.4
20190615135340 18 308 12.9 25.7 0.00 0.00 0.00 74 1021.4
20190615135036 18 278 16.1 24.1 0.00 0.00 0.00 71 1021.8
20190615134832 18 288 14.5 25.7 0.00 0.00 0.00 73 1021.5
20190615134652 18 280 11.3 25.7 0.00 0.00 0.00 73 1021.7
20190615134332 18 278 16.1 25.7 0.00 0.00 0.00 73 1021.6
20190615134032 18 310 17.7 25.7 0.00 0.00 0.00 72 1021.9
20190615133804 18 316 14.5 25.7 0.00 0.00 0.00 72 1021.5
20190615133303 18 265 14.5 25.7 0.00 0.00 0.00 71 1021.5
20190615133148 18 320 11.3 24.1 0.00 0.00 0.00 72 1021.7
20190615133033 18 290 11.3 24.1 0.00 0.00 0.00 72 1021.8
20190615132802 18 307 14.5 25.7 0.00 0.00 0.00 72 1021.5
20190615132303 18 284 16.1 27.4 0.00 0.00 0.00 70 1021.5
20190615132028 18 312 14.5 25.7 0.00 0.00 0.00 71 1021.8
20190615131741 18 311 16.1 27.4 0.00 0.00 0.00 69 1021.5
20190615131518 18 317 16.1 27.4 0.00 0.00 0.00 70 1021.8
20190615131232 18 331 16.1 27.4 0.00 0.00 0.00 69 1021.5
20190615131044 18 283 17.7 27.4 0.00 0.00 0.00 68 1021.8
20190615130733 18 271 17.7 27.4 0.00 0.00 0.00 67 1021.5
20190615130205 18 311 17.7 25.7 0.00 0.00 0.00 69 1021.6
20190615130028 18 320 17.7 25.7 0.00 0.00 0.00 70 1021.9
20190615125704 18 297 16.1 22.5 0.00 0.00 0.00 70 1021.6
20190615125133 18 292 14.5 24.1 0.00 0.00 0.00 70 1021.6
20190615125035 18 323 16.1 24.1 0.00 0.00 0.00 70 1021.9
20190615124632 18 252 12.9 22.5 0.00 0.00 0.00 70 1021.7
20190615124106 18 301 14.5 22.5 0.00 0.00 0.00 70 1021.7
20190615124042 18 301 16.1 22.5 0.00 0.00 0.00 70 1022.0
20190615123602 18 338 16.1 22.5 0.00 0.00 0.00 69 1021.7
20190615123102 18 279 16.1 24.1 0.00 0.00 0.00 72 1021.7
20190615123030 18 294 14.5 24.1 0.00 0.00 0.00 71 1022.0
20190615122601 19 298 16.1 22.5 0.00 0.00 0.00 70 1021.8
20190615122102 18 308 14.5 20.9 0.00 0.00 0.00 71 1021.8
20190615122045 18 308 17.7 22.5 0.00 0.00 0.00 71 1022.1
20190615121553 18 329 14.5 24.1 0.00 0.00 0.00 70 1021.9
20190615121049 18 326 14.5 24.1 0.00 0.00 0.00 71 1021.9
20190615120531 18 299 14.5 22.5 0.00 0.00 0.00 72 1021.8
20190615120131 18 266 12.9 22.5 0.00 0.00 0.00 72 1022.1
20190615120031 19 336 14.5 24.1 0.00 0.00 0.00 72 1021.8
20190615120029 19 336 14.5 22.5 0.00 0.00 0.00 72 1022.1
20190615115529 18 327 14.5 24.1 0.00 0.00 0.00 73 1021.8
20190615115027 18 296 14.5 22.5 0.00 0.00 0.00 73 1022.1
20190615115016 18 236 14.5 20.9 0.00 0.00 0.00 73 1021.8
20190615114520 18 308 11.3 24.1 0.00 0.00 0.00 70 1022.0
20190615114502 18 219 16.1 24.1 0.00 0.00 0.00 70 1021.7
20190615114049 18 297 17.7 24.1 0.00 0.00 0.00 72 1021.9
20190615114004 18 300 14.5 24.1 0.00 0.00 0.00 71 1021.7
20190615113444 18 315 12.9 14.5 0.00 0.00 0.00 74 1021.7
20190615113043 18 321 12.9 20.9 0.00 0.00 0.00 74 1022.0
20190615113016 17 289 12.9 22.5 0.00 0.00 0.00 74 1022.0
20190615112931 18 294 14.5 22.5 0.00 0.00 0.00 72 1021.7
20190615112420 18 292 14.5 19.3 0.00 0.00 0.00 73 1021.7
20190615112029 18 301 14.5 24.1 0.00 0.00 0.00 73 1022.0
20190615111904 18 319 14.5 24.1 0.00 0.00 0.00 73 1021.7
20190615111503 18 317 16.1 24.1 0.00 0.00 0.00 74 1021.9
20190615111401 18 315 14.5 22.5 0.00 0.00 0.00 73 1021.7
20190615111034 18 264 9.7 22.5 0.00 0.00 0.00 73 1021.9
20190615110850 18 323 14.5 22.5 0.00 0.00 0.00 73 1021.7
20190615110332 18 294 14.5 22.5 0.00 0.00 0.00 73 1021.7
20190615110037 18 314 14.5 22.5 0.00 0.00 0.00 73 1022.0
20190615105818 18 287 14.5 25.7 0.00 0.00 0.00 73 1021.7
20190615105303 18 252 14.5 25.7 0.00 0.00 0.00 73 1021.7
20190615105047 18 264 16.1 25.7 0.00 0.00 0.00 73 1022.0
20190615104755 18 275 12.9 20.9 0.00 0.00 0.00 71 1021.7
20190615104708 18 300 12.9 20.9 0.00 0.00 0.00 72 1021.9
20190615104231 18 348 12.9 20.9 0.00 0.00 0.00 74 1021.6
20190615104032 18 350 12.9 20.9 0.00 0.00 0.00 72 1021.9
20190615103729 18 291 12.9 20.9 0.00 0.00 0.00 74 1021.6
20190615103230 18 286 12.9 20.9 0.00 0.00 0.00 74 1021.6
20190615103054 18 327 11.3 20.9 0.00 0.00 0.00 73 1021.9
20190615103041 18 326 11.3 20.9 0.00 0.00 0.00 74 1021.9
20190615102730 18 265 12.9 20.9 0.00 0.00 0.00 74 1021.6
20190615102221 18 298 12.9 20.9 0.00 0.00 0.00 75 1021.6
20190615102042 18 300 12.9 20.9 0.00 0.00 0.00 76 1021.9
20190615101704 18 334 11.3 20.9 0.00 0.00 0.00 76 1021.7
20190615101521 17 328 11.3 20.9 0.00 0.00 0.00 75 1021.9
20190615101202 18 332 12.9 24.1 0.00 0.00 0.00 76 1021.7
20190615101038 18 298 11.3 24.1 0.00 0.00 0.00 76 1022.0
20190615100631 17 296 12.9 24.1 0.00 0.00 0.00 75 1021.7
20190615100111 18 300 11.3 19.3 0.00 0.00 0.00 76 1021.7
20190615100030 18 331 11.3 19.3 0.00 0.00 0.00 77 1022.0
20190615095610 17 281 9.7 17.7 0.00 0.00 0.00 76 1021.6
20190615095101 18 338 9.7 20.9 0.00 0.00 0.00 75 1021.6
20190615095054 18 338 6.4 20.9 0.00 0.00 0.00 75 1021.9
20190615094552 17 351 11.3 20.9 0.00 0.00 0.00 76 1021.6
20190615094035 17 273 11.3 16.1 0.00 0.00 0.00 76 1021.6
20190615094030 17 273 11.3 17.7 0.00 0.00 0.00 76 1021.9
20190615093529 17 288 11.3 17.7 0.00 0.00 0.00 77 1021.6
20190615093045 17 288 9.7 17.7 0.00 0.00 0.00 78 1021.8
20190615093031 17 284 9.7 16.1 0.00 0.00 0.00 78 1021.5
20190615092535 17 279 8.0 14.5 0.00 0.00 0.00 76 1021.4
20190615092044 17 257 8.0 14.5 0.00 0.00 0.00 77 1021.8
20190615092011 17 271 9.7 12.9 0.00 0.00 0.00 78 1021.5
20190615091619 17 278 9.7 14.5 0.00 0.00 0.00 79 1021.7
20190615091502 17 309 8.0 14.5 0.00 0.00 0.00 78 1021.4
20190615091027 17 296 9.7 14.5 0.00 0.00 0.00 80 1021.7
20190615091001 17 300 8.0 12.9 0.00 0.00 0.00 79 1021.4
20190615090429 17 284 9.7 16.1 0.00 0.00 0.00 80 1021.4
20190615090029 17 263 9.7 16.1 0.00 0.00 0.00 80 1021.7
20190615090002 16 266 8.0 16.1 0.00 0.00 0.00 80 1021.7
20190615085929 17 279 9.7 16.1 0.00 0.00 0.00 80 1021.4
20190615085422 16 268 8.0 14.5 0.00 0.00 0.00 81 1021.4
20190615085033 16 277 9.7 14.5 0.00 0.00 0.00 82 1021.6
20190615084903 16 285 6.4 12.9 0.00 0.00 0.00 82 1021.3
20190615084332 16 263 8.0 12.9 0.00 0.00 0.00 83 1021.3
20190615084026 16 298 8.0 12.9 0.00 0.00 0.00 83 1021.6
20190615083830 16 335 8.0 12.9 0.00 0.00 0.00 83 1021.3
20190615083329 16 304 6.4 11.3 0.00 0.00 0.00 84 1021.3
20190615083034 16 286 8.0 12.9 0.00 0.00 0.00 84 1021.6
20190615082831 16 284 6.4 12.9 0.00 0.00 0.00 84 1021.3
20190615082330 16 292 6.4 11.3 0.00 0.00 0.00 85 1021.3
20190615082051 16 277 4.8 11.3 0.00 0.00 0.00 85 1021.5
20190615081807 16 301 4.8 11.3 0.00 0.00 0.00 86 1021.3
20190615081301 16 287 3.2 8.0 0.00 0.00 0.00 86 1021.3
20190615081035 16 300 3.2 8.0 0.00 0.00 0.00 86 1021.6
20190615080802 15 306 3.2 8.0 0.00 0.00 0.00 87 1021.3
20190615080230 15 14 3.2 4.8 0.00 0.00 0.00 87 1021.3
20190615080047 15 14 3.2 6.4 0.00 0.00 0.00 88 1021.5
20190615080044 15 14 3.2 6.4 0.00 0.00 0.00 88 1021.6
20190615075729 15 14 3.2 6.4 0.00 0.00 0.00 88 1021.3
20190615075202 15 14 1.6 4.8 0.00 0.00 0.00 88 1021.2
20190615075041 15 14 1.6 6.4 0.00 0.00 0.00 88 1021.5
20190615074701 15 40 1.6 6.4 0.00 0.00 0.00 89 1021.1
20190615074503 15 41 1.6 6.4 0.00 0.00 0.00 89 1021.4
20190615074132 15 252 0.0 3.2 0.00 0.00 0.00 90 1021.1
20190615074041 15 252 1.6 3.2 0.00 0.00 0.00 90 1021.4
20190615073631 14 252 0.0 1.6 0.00 0.00 0.00 91 1021.1
20190615073130 14 252 0.0 3.2 0.00 0.00 0.00 91 1021.0
20190615073034 14 252 0.0 3.2 0.00 0.00 0.00 91 1021.3
20190615072630 14 252 1.6 3.2 0.00 0.00 0.00 91 1021.0
20190615072129 13 252 0.0 3.2 0.00 0.00 0.00 91 1021.0
20190615072034 13 252 1.6 3.2 0.00 0.00 0.00 91 1021.3
20190615071610 13 252 0.0 0.0 0.00 0.00 0.00 91 1020.9
20190615071104 13 252 0.0 1.6 0.00 0.00 0.00 92 1020.9
20190615071035 13 252 0.0 1.6 0.00 0.00 0.00 92 1021.2
20190615070603 12 252 0.0 0.0 0.00 0.00 0.00 92 1020.8
20190615070101 11 252 0.0 1.6 0.00 0.00 0.00 92 1020.8
20190615070050 12 252 0.0 1.6 0.00 0.00 0.00 92 1021.1
20190615070046 11 252 0.0 1.6 0.00 0.00 0.00 92 1021.0
20190615065601 11 252 0.0 1.6 0.00 0.00 0.00 92 1020.7
20190615065101 11 252 0.0 0.0 0.00 0.00 0.00 92 1020.7
20190615065028 11 252 0.0 0.0 0.00 0.00 0.00 92 1021.0
20190615064540 10 252 0.0 0.0 0.00 0.00 0.00 92 1020.9
20190615064537 11 252 0.0 0.0 0.00 0.00 0.00 92 1020.6
20190615064031 10 252 0.0 0.0 0.00 0.00 0.00 92 1020.5
20190615064025 11 252 0.0 0.0 0.00 0.00 0.00 92 1020.8
20190615063530 10 252 0.0 0.0 0.00 0.00 0.00 92 1020.5